Ahoskie, NC

5:48 AM EDT on April 29, 2017 (GMT -0400)
Tri County

Weather History for KASJ - February, 2013

Change the Weather History Date:

Sunday, February 3, 2013

  Actual Average (KEMV) Record (KEMV)
Temperature  
Mean Temperature 39 °F -  
Max Temperature 47 °F 56 °F 79 °F (1989)
Min Temperature 32 °F 31 °F 18 °F (1993)
Degree Days  
Heating Degree Days 26    
Moisture  
Dew Point 28 °F    
Average Humidity 69    
Maximum Humidity 92    
Minimum Humidity 33    
Precipitation  
Precipitation 0.00 in - - ()
Sea Level Pressure  
Sea Level Pressure 29.93 in    
Wind  
Wind Speed 1 mph (WNW)    
Max Wind Speed 6 mph    
Max Gust Speed -    
Visibility 10 miles    
Events Rain    
Averages and records for this station are not official NWS values.
T = Trace of Precipitation, MM = Missing Value Source: NWS Daily Summary

Daily Weather History Graph

Daily Weather History Graph

Search for Another Location

Airport or City:

Trip Planner

Search our weather history database for the weather conditions in past years. The results will help you decide how hot, cold, wet, or windy it might be!

Date:

Astronomy

Feb. 03, 2013 Rise Set
Actual Time 7:08 AM EST 5:37 PM EST
Civil Twilight 6:41 AM EST 6:04 PM EST
Nautical Twilight 6:10 AM EST 6:35 PM EST
Astronomical Twilight 5:40 AM EST 7:05 PM EST
Moon 12:32 AM EST (2/3) 11:14 AM EST (2/3)
Length of Visible Light 11h 23m
Length of Day
10h 29m
Waning Gibbous, 49% of the Moon is Illuminated
Feb 3
Waning Gibbous
Feb 10
New
Feb 17
First Quarter
Feb 25
Full
Mar 4
Last Quarter

Hourly Weather History & Observations

Time (EST) Temp. Windchill Dew Point Humidity Pressure Visibility Wind Dir Wind Speed Gust Speed Precip Events Conditions
12:15 AM 36.0 °F - 32.0 °F 86% 30.04 in 10.0 mi Calm Calm - N/A Rain Light Rain
12:35 AM 36.5 °F - 32.9 °F 87% 30.03 in 10.0 mi Calm Calm - N/A Rain Rain
12:55 AM 36.0 °F - 32.5 °F 87% 30.01 in 10.0 mi Calm Calm - N/A Rain Light Rain
1:15 AM 36.0 °F - 32.5 °F 87% 30.01 in 10.0 mi Calm Calm - N/A Rain Light Rain
1:35 AM 35.1 °F - 32.2 °F 89% 30.00 in 10.0 mi Calm Calm - N/A   Scattered Clouds
1:55 AM 35.1 °F - 32.5 °F 91% 29.98 in 10.0 mi Calm Calm - N/A   Overcast
2:15 AM 35.1 °F - 32.9 °F 92% 29.98 in 10.0 mi Calm Calm - N/A   Overcast
2:35 AM 35.1 °F - 32.9 °F 92% 29.97 in 10.0 mi Calm Calm - N/A   Overcast
2:55 AM 35.1 °F - 32.9 °F 92% 29.97 in 10.0 mi Calm Calm - N/A   Overcast
3:15 AM 35.1 °F - 32.5 °F 91% 29.96 in 10.0 mi Calm Calm - N/A   Overcast
3:35 AM 35.1 °F - 32.9 °F 92% 29.96 in 10.0 mi Calm Calm - N/A   Overcast
3:55 AM 35.1 °F - 32.9 °F 92% 29.96 in 10.0 mi Calm Calm - N/A   Overcast
4:15 AM 35.1 °F - 32.9 °F 92% 29.94 in 10.0 mi Calm Calm - N/A   Overcast
4:35 AM 35.1 °F - 32.9 °F 92% 29.94 in 10.0 mi Calm Calm - N/A   Mostly Cloudy
4:55 AM 35.1 °F - 32.9 °F 92% 29.94 in 10.0 mi Calm Calm - N/A   Mostly Cloudy
5:15 AM 32.5 °F - 30.6 °F 92% 29.94 in 10.0 mi Calm Calm - N/A   Mostly Cloudy
5:35 AM 35.1 °F - 32.2 °F 89% 29.94 in 10.0 mi Calm Calm - N/A   Overcast
5:55 AM 35.1 °F - 32.0 °F 89% 29.93 in 10.0 mi Calm Calm - N/A   Overcast
6:15 AM 35.2 °F - 31.6 °F 87% 29.93 in 10.0 mi Calm Calm - N/A   Overcast
6:35 AM 36.3 °F - 32.0 °F 84% 29.93 in 10.0 mi Calm Calm - N/A   Overcast
6:55 AM 36.3 °F - 32.0 °F 84% 29.93 in 10.0 mi Calm Calm - N/A   Overcast
7:15 AM 36.0 °F - 31.8 °F 85% 29.93 in 10.0 mi Calm Calm - N/A   Overcast
7:35 AM 36.3 °F - 32.0 °F 84% 29.93 in 10.0 mi Calm Calm - N/A   Overcast
7:55 AM 36.1 °F - 32.2 °F 86% 29.93 in 10.0 mi Calm Calm - N/A   Overcast
8:15 AM 35.1 °F - 32.0 °F 89% 29.94 in 10.0 mi Calm Calm - N/A   Overcast
8:55 AM 36.5 °F - 32.9 °F 87% 29.95 in 10.0 mi Calm Calm - N/A   Light Drizzle
9:15 AM 37.6 °F - 33.1 °F 84% 29.95 in 10.0 mi Calm Calm - N/A   Scattered Clouds
9:35 AM 37.6 °F - 32.4 °F 81% 29.95 in 10.0 mi Calm Calm - N/A   Clear
9:55 AM 38.3 °F - 32.9 °F 81% 29.95 in 10.0 mi Calm Calm - N/A   Scattered Clouds
10:15 AM 38.7 °F - 32.4 °F 78% 29.95 in 10.0 mi Calm Calm - N/A   Mostly Cloudy
10:35 AM 39.7 °F - 32.2 °F 74% 29.94 in 10.0 mi Calm Calm - N/A   Mostly Cloudy
10:55 AM 39.2 °F 35.9 °F 30.2 °F 70% 29.94 in 10.0 mi NW 4.6 mph - N/A   Mostly Cloudy
11:15 AM 42.6 °F 40.9 °F 31.1 °F 64% 29.94 in 10.0 mi West 3.5 mph - N/A   Scattered Clouds
11:35 AM 41.5 °F - 30.2 °F 64% 29.92 in 10.0 mi Calm Calm - N/A   Mostly Cloudy
11:55 AM 42.8 °F - 29.5 °F 59% 29.92 in 10.0 mi Calm Calm - N/A   Overcast
12:15 PM 42.8 °F 41.1 °F 29.1 °F 58% 29.91 in 10.0 mi North 3.5 mph - N/A   Overcast
12:35 PM 45.1 °F 42.0 °F 27.0 °F 49% 29.89 in 10.0 mi West 5.8 mph - N/A   Scattered Clouds
12:55 PM 45.1 °F - 28.8 °F 53% 29.88 in 10.0 mi Calm Calm - N/A   Mostly Cloudy
1:15 PM 45.1 °F 43.7 °F 25.7 °F 47% 29.86 in 10.0 mi SSW 3.5 mph - N/A   Mostly Cloudy
1:55 PM 45.1 °F 42.0 °F 21.2 °F 39% 29.86 in 10.0 mi WSW 5.8 mph - N/A   Scattered Clouds
2:15 PM 45.9 °F 43.6 °F 22.3 °F 39% 29.85 in 10.0 mi SW 4.6 mph - N/A   Scattered Clouds
2:35 PM 45.1 °F 42.8 °F 18.7 °F 35% 29.84 in 10.0 mi WNW 4.6 mph - N/A   Scattered Clouds
2:55 PM 45.5 °F - 19.2 °F 35% 29.84 in 10.0 mi Calm Calm - N/A   Scattered Clouds
3:15 PM 45.9 °F 44.6 °F 19.0 °F 34% 29.85 in 10.0 mi WSW 3.5 mph - N/A   Clear
3:35 PM 45.5 °F 43.2 °F 20.5 °F 37% 29.86 in 10.0 mi West 4.6 mph - N/A   Mostly Cloudy
3:55 PM 46.4 °F 45.2 °F 18.5 °F 33% 29.86 in 10.0 mi West 3.5 mph - N/A   Mostly Cloudy
4:15 PM 45.1 °F 43.7 °F 19.2 °F 36% 29.86 in 10.0 mi West 3.5 mph - N/A   Scattered Clouds
4:35 PM 45.1 °F 43.7 °F 20.7 °F 38% 29.86 in 10.0 mi SW 3.5 mph - N/A   Clear
4:55 PM 42.8 °F - 23.4 °F 46% 29.87 in 10.0 mi Calm Calm - N/A   Scattered Clouds
5:15 PM 45.1 °F - 24.3 °F 44% 29.87 in 10.0 mi Calm Calm - N/A   Mostly Cloudy
5:35 PM 45.1 °F 43.7 °F 25.2 °F 46% 29.88 in 10.0 mi WSW 3.5 mph - N/A   Mostly Cloudy
5:55 PM 45.1 °F 43.7 °F 24.8 °F 45% 29.89 in 10.0 mi NW 3.5 mph - N/A   Mostly Cloudy
6:15 PM 45.1 °F 43.7 °F 26.2 °F 48% 29.91 in 10.0 mi WNW 3.5 mph - N/A   Overcast
6:35 PM 45.1 °F 43.7 °F 28.0 °F 51% 29.92 in 10.0 mi NW 3.5 mph - N/A   Overcast
6:55 PM 44.4 °F 42.9 °F 30.0 °F 57% 29.92 in 10.0 mi WNW 3.5 mph - N/A   Overcast
7:15 PM 42.6 °F - 30.2 °F 61% 29.92 in 10.0 mi Calm Calm - N/A   Mostly Cloudy
7:35 PM 39.2 °F - 28.8 °F 66% 29.92 in 10.0 mi Calm Calm - N/A   Scattered Clouds
7:55 PM 37.6 °F - 28.6 °F 70% 29.93 in 10.0 mi Calm Calm - N/A   Clear
8:15 PM 35.1 °F - 28.8 °F 78% 29.93 in 10.0 mi Calm Calm - N/A   Clear
8:35 PM 35.2 °F - 28.2 °F 76% 29.94 in 10.0 mi Calm Calm - N/A   Clear
8:55 PM 37.4 °F - 29.1 °F 72% 29.95 in 10.0 mi Calm Calm - N/A   Clear
9:15 PM 36.9 °F - 28.6 °F 72% 29.95 in 10.0 mi Calm Calm - N/A   Clear
9:35 PM 36.5 °F - 28.2 °F 72% 29.96 in 10.0 mi Calm Calm - N/A   Clear
9:55 PM 36.7 °F 32.9 °F 27.0 °F 68% 29.96 in 10.0 mi NW 4.6 mph - N/A   Clear
10:15 PM 36.5 °F 31.8 °F 24.6 °F 62% 29.96 in 10.0 mi NW 5.8 mph - N/A   Clear
10:55 PM 37.6 °F 34.0 °F 20.1 °F 49% 29.97 in 10.0 mi NW 4.6 mph - N/A   Clear
11:15 PM 36.5 °F 32.7 °F 19.4 °F 50% 29.96 in 10.0 mi NW 4.6 mph - N/A   Clear
11:35 PM 36.5 °F 33.9 °F 19.4 °F 50% 29.98 in 10.0 mi NW 3.5 mph - N/A   Clear
11:55 PM 35.2 °F 32.4 °F 19.2 °F 52% 29.98 in 10.0 mi NW 3.5 mph - N/A   Clear